TimeEST,TemperatureF,Dew PointF,Humidity,Sea Level PressureIn,VisibilityMPH,Wind Direction,Wind SpeedMPH,Gust SpeedMPH,PrecipitationIn,Events,Conditions,WindDirDegrees,DateUTC
12:54 AM,42.1,30.9,65,29.67,10.0,Calm,Calm,-,N/A,,Partly Cloudy,0,2013-02-28 05:54:00
1:54 AM,41.0,36.0,82,29.66,10.0,Calm,Calm,-,N/A,,Overcast,0,2013-02-28 06:54:00
2:54 AM,46.9,37.0,68,29.66,10.0,WNW,4.6,-,N/A,,Overcast,300,2013-02-28 07:54:00
3:54 AM,45.0,37.9,76,29.64,10.0,Calm,Calm,-,N/A,,Overcast,0,2013-02-28 08:54:00
4:54 AM,46.0,36.0,68,29.66,10.0,SW,3.5,-,N/A,,Overcast,220,2013-02-28 09:54:00
5:54 AM,46.9,36.0,66,29.67,10.0,WSW,6.9,-,N/A,,Overcast,240,2013-02-28 10:54:00
6:54 AM,46.0,35.1,66,29.68,10.0,WSW,8.1,-,N/A,,Mostly Cloudy,240,2013-02-28 11:54:00
7:54 AM,46.9,34.0,61,29.68,10.0,West,11.5,-,N/A,,Mostly Cloudy,270,2013-02-28 12:54:00
8:54 AM,48.9,35.1,59,29.69,10.0,NW,12.7,-,N/A,,Clear,310,2013-02-28 13:54:00
9:33 AM,50.0,35.6,58,29.70,10.0,North,8.1,-,N/A,,Mostly Cloudy,350,2013-02-28 14:33:00
9:54 AM,51.1,36.0,56,29.69,10.0,NW,8.1,-,N/A,,Overcast,310,2013-02-28 14:54:00
10:18 AM,50.0,35.6,58,29.69,10.0,West,9.2,-,N/A,,Overcast,270,2013-02-28 15:18:00
10:54 AM,51.1,35.1,54,29.70,10.0,WSW,4.6,-,N/A,,Overcast,250,2013-02-28 15:54:00
11:54 AM,51.1,30.0,44,29.69,10.0,West,10.4,-,N/A,,Overcast,280,2013-02-28 16:54:00
12:54 PM,50.0,28.9,44,29.68,10.0,NW,9.2,-,N/A,,Overcast,310,2013-02-28 17:54:00
1:54 PM,-9999,-9999,N/A,29.67,-9999.0,East,8.1,-,N/A,,Unknown,80,2013-02-28 18:54:00
2:16 PM,46.4,35.6,66,29.66,2.0,North,-9999.0,-,N/A,,Haze,0,2013-02-28 19:16:00
2:26 PM,46.4,37.4,71,29.66,10.0,North,-9999.0,-,N/A,,Overcast,0,2013-02-28 19:26:00
2:54 PM,46.0,36.0,68,29.67,10.0,North,-9999.0,-,N/A,,Overcast,0,2013-02-28 19:54:00
3:54 PM,48.9,30.9,50,29.67,10.0,Variable,6.9,-,N/A,,Overcast,0,2013-02-28 20:54:00
4:54 PM,48.9,27.0,43,29.68,10.0,WNW,12.7,23.0,N/A,,Overcast,290,2013-02-28 21:54:00
5:54 PM,48.0,26.1,42,29.70,10.0,West,10.4,-,N/A,,Partly Cloudy,280,2013-02-28 22:54:00
6:54 PM,46.0,27.0,47,29.74,10.0,WNW,8.1,-,N/A,,Clear,300,2013-02-28 23:54:00
7:54 PM,45.0,27.0,49,29.75,10.0,Calm,Calm,-,N/A,,Clear,0,2013-03-01 00:54:00
8:54 PM,42.8,24.8,49,29.75,10.0,West,4.6,-,N/A,,Mostly Cloudy,260,2013-03-01 01:54:00
9:54 PM,41.0,26.1,55,29.76,10.0,WSW,6.9,-,N/A,,Partly Cloudy,250,2013-03-01 02:54:00
11:54 PM,41.0,25.0,53,29.77,10.0,West,8.1,-,N/A,,Clear,270,2013-03-01 04:54:00